EHI
3 3 3 2 1 1 0 0 0 0 0 0 0 0 0 0 0 0 0 0 0 0 0 0 0 0 0 0 0 0 0 0 0 0 0 0 0 0
3 3 3 3 2 1 0 0 0 0 0 0 0 0 0 0 0 0 0 0 0 0 0 0 0 0 0 0 0 0 0 0 0 0 0 0 0 0
3 3 3 3 2 1 0 0 0 0 0 0 0 0 0 0 0 0 0 0 0 0 0 0 0 0 0 0 0 0 0 0 0 0 0 0 0 0
2 2 2 2 1 0 0 0 0 0 0 0 0 0 0 0 0 0 0 0 0 0 0 0 0 0 0 0 0 0 0 0 0 0 0 0 0 0
1 1 1 1 0 0 0 0 0 0 0 0 0 0 0 0 0 0 0 0 0 0 0 0 0 0 0 0 0 0 0 0 0 0 0 0 0 0
0 0 0 0 0 0 0 0 0 0 0 0 0 0 0 0 0 0 0 0 0 0 0 0 0 0 0 0 0 0 0 0 0 0 0 0 0 0
0 0 0 0 0 0 0 0 0 0 0 0 0 0 0 0 0 0 0 0 0 0 0 0 0 0 0 0 0 0 0 0 0 0 0 0 0 0
0 0 0 0 0 0 0 0 0 0 0 0 0 0 0 0 0 0 0 0 0 0 0 0 0 0 0 0 0 0 0 0 0 0 0 0 0 0
0 0 0 0 0 0 0 0 0 0 0 0 0 0 0 0 0 0 0 0 0 0 0 0 0 0 0 0 0 0 0 0 0 0 0 0 0 0
0 0 0 0 0 0 0 0 0 0 0 0 0 0 0 0 0 0 0 0 0 0 0 0 0 0 0 0 0 0 0 0 0 0 0 0 0 0
0 0 0 0 0 0 0 0 0 0 0 0 0 0 0 0 0 0 0 0 0 0 0 0 0 0 0 0 0 0 0 0 0 0 0 0 0 0
0 0 0 0 0 0 0 0 0 0 0 0 0 0 0 0 0 0 0 0 0 0 0 0 0 0 0 0 0 0 0 0 0 0 0 0 0 0
0 0 0 0 0 0 0 0 0 0 0 0 0 0 0 0 0 0 0 0 0 0 0 0 0 0 0 0 0 0 0 0 0 0 0 0 0 0
0 0 0 0 0 0 0 0 0 0 0 0 0 0 0 0 0 0 0 0 0 0 0 0 0 0 0 0 0 0 0 0 0 0 0 0 0 0
0 0 0 0 0 0 0 0 0 0 0 0 0 0 0 0 0 0 0 0 0 0 0 0 0 0 0 0 0 0 0 0 0 0 0 0 0 0
0 0 0 0 0 0 0 0 0 0 0 0 0 0 0 0 0 0 0 0 0 0 0 0 0 0 0 0 0 0 0 0 0 0 0 0 0 0
0 0 0 0 0 0 0 0 0 0 0 0 0 0 0 0 0 0 0 0 0 0 0 0 0 0 0 0 0 0 0 0 0 0 0 0 0 0
0 0 0 0 0 0 0 0 0 0 0 0 0 0 0 0 0 0 0 0 0 0 0 0 0 0 0 0 0 0 0 0 0 0 0 0 0 0
0 0 0 0 0 0 0 0 0 0 0 0 0 0 0 0 0 0 0 0 0 0 0 0 0 0 0 0 0 0 0 0 0 0 0 0 0 0
0 0 0 0 0 0 0 0 0 0 0 0 0 0 0 0 0 0 0 0 0 0 0 0 0 0 0 0 0 0 0 0 0 0 0 0 0 0
0 0 0 0 0 0 0 0 0 0 0 0 0 0 0 0 0 0 0 0 0 0 0 0 0 0 0 0 0 0 0 0 0 0 0 0 0 0
0 0 0 0 0 0 0 0 0 0 0 0 0 0 0 0 0 0 0 0 0 0 0 0 0 0 0 0 0 0 0 0 0 0 0 0 0 0
0 0 0 0 0 0 0 0 0 0 0 0 0 0 0 0 0 0 0 0 0 0 0 0 0 0 0 0 0 0 0 0 0 0 0 0 0 0
Wind_Speed
4 4 3 3 2 2 2 3 4 3 2 2 2 2 3 3 2 2 2 4 5 6 7 7 8 8 8 8 9 9 9 10 10 10 9 8 7 7
3 4 3 3 3 2 2 2 2 3 2 1 2 2 3 3 3 2 2 4 4 5 6 5 6 6 7 8 8 8 9 10 10 9 9 9 8 8
4 5 4 4 3 3 2 2 2 2 2 1 1 2 3 3 2 1 1 1 2 4 4 4 4 5 6 7 7 8 8 9 10 10 9 9 9 8
7 6 6 4 4 4 3 3 3 3 3 2 1 2 2 3 2 1 1 1 1 3 3 3 3 4 5 6 6 7 8 8 9 9 10 10 9 9
7 7 7 7 6 4 4 4 3 2 2 2 2 2 1 2 2 1 1 0 1 2 2 2 2 3 4 5 6 7 7 8 8 9 10 11 10 10
6 6 7 7 7 7 5 4 4 3 3 3 3 2 2 2 2 2 2 1 1 1 1 1 1 1 2 4 5 5 6 7 7 8 10 11 11 11
5 5 5 6 7 7 5 5 5 4 3 3 3 3 3 3 3 3 2 2 1 1 1 1 1 0 1 2 4 4 5 6 7 8 9 10 11 11
6 5 5 6 8 9 8 8 7 6 5 4 3 4 4 4 3 3 3 2 2 1 1 1 1 1 1 1 2 3 4 5 6 7 8 9 10 10
7 6 5 6 8 6 7 8 6 6 6 4 4 4 4 5 5 4 3 3 3 2 2 1 1 1 1 1 2 2 3 4 5 6 7 8 8 9
7 8 7 7 8 8 6 5 4 4 4 3 2 2 3 4 5 5 4 3 2 1 2 2 1 1 1 1 1 2 2 3 4 4 5 6 7 7
7 7 8 8 13 14 8 6 5 3 4 5 5 5 6 7 6 4 4 3 2 2 1 2 1 1 1 1 1 2 1 1 2 3 4 5 5 6
5 7 11 11 14 15 9 8 7 5 5 4 3 4 3 4 6 5 5 4 3 2 2 2 2 2 0 1 1 1 1 1 1 1 2 3 4 3
6 6 6 15 15 16 12 7 9 7 6 5 4 3 3 2 2 3 3 3 3 2 3 3 2 2 2 1 1 1 1 0 1 1 2 2 2 2
6 6 7 15 15 15 11 11 13 10 5 4 4 3 3 3 3 3 4 3 3 3 3 3 3 3 2 1 1 1 1 1 1 0 1 1 2 3
5 10 12 15 14 11 13 14 10 5 5 4 4 4 3 4 4 4 4 4 3 2 2 2 3 2 2 2 2 1 1 1 1 1 0 1 1 1
5 10 14 14 10 10 10 9 5 6 5 5 4 4 4 4 4 3 3 3 2 1 1 1 2 3 2 2 2 2 2 2 1 1 1 1 2 2
5 4 4 5 6 6 5 5 5 6 6 4 5 5 5 5 4 4 4 3 3 3 3 2 2 2 2 2 3 4 3 3 2 2 2 2 3 4
8 6 7 7 7 8 7 7 6 7 6 5 5 6 6 6 5 4 4 4 4 3 4 4 3 2 1 4 8 5 3 3 3 3 2 2 3 3
7 6 7 7 7 7 7 7 7 7 6 6 6 6 6 6 5 5 5 4 4 4 4 4 4 4 3 3 4 9 5 3 3 3 3 4 3 3
5 6 6 7 7 7 7 7 6 6 6 6 6 6 6 6 6 6 6 6 5 5 4 5 6 6 6 4 2 3 9 5 3 3 3 3 4 6
5 5 5 5 6 6 6 6 7 7 7 7 7 7 7 7 7 7 7 10 8 6 7 7 7 9 4 2 2 2 3 9 8 4 3 2 2 2
4 5 5 5 5 6 6 6 6 7 7 7 7 7 7 7 7 8 7 7 7 7 6 4 4 5 5 6 5 4 3 3 8 12 9 7 4 4
3 3 4 5 5 5 5 6 7 6 7 7 7 7 7 7 7 7 7 7 6 6 5 5 4 5 5 5 5 4 4 4 3 3 5 11 15 15
Wind_Direction
176 172 164 163 147 144 148 156 166 195 214 155 133 125 117 103 93 64 68 77 74 72 64 55 45 36 32 26 18 14 12 10 6 6 7 7 10 11
165 164 168 162 150 147 156 163 158 168 195 137 128 138 123 117 114 87 85 86 84 82 69 59 46 39 35 30 24 19 16 13 10 11 12 13 15 16
169 172 178 162 155 155 148 155 164 156 179 147 98 118 125 134 127 97 90 76 88 88 75 61 50 44 35 32 27 22 20 17 13 14 16 17 16 17
181 177 176 166 162 158 155 171 175 171 167 179 157 142 143 151 147 145 122 101 107 102 90 73 62 50 38 35 31 26 25 24 20 19 23 25 25 26
181 178 174 167 172 168 169 174 171 166 157 163 165 143 139 149 141 155 173 138 124 134 130 105 78 60 50 43 38 33 29 28 28 28 27 28 31 33
176 173 174 176 177 173 176 175 166 166 167 171 173 163 157 154 153 179 202 204 196 174 162 134 121 80 64 56 47 39 36 34 37 41 39 36 34 36
170 169 170 169 169 171 170 171 169 172 177 182 180 167 171 167 188 184 188 176 195 179 165 219 188 86 26 53 51 44 45 47 47 47 44 41 38 39
170 164 160 161 167 175 173 172 172 174 181 181 184 188 196 190 174 168 158 149 220 226 153 227 166 153 132 85 52 54 56 56 51 47 44 42 41 40
173 170 175 181 174 167 178 180 185 190 185 172 185 196 192 185 164 165 172 173 194 184 136 208 193 177 176 116 99 79 75 62 54 46 43 41 42 42
179 179 178 174 175 167 165 167 177 184 182 173 177 187 167 153 157 163 162 133 93 100 132 173 195 187 167 136 158 129 102 73 54 45 40 37 35 38
187 185 180 177 186 181 168 168 174 177 172 157 146 143 140 145 145 129 138 138 164 211 182 156 168 143 158 189 194 175 154 98 49 35 31 31 29 30
191 194 194 188 189 187 173 170 179 182 164 159 155 149 143 155 158 156 159 157 155 189 196 156 149 125 207 259 189 207 285 278 305 4 15 25 26 36
191 193 196 195 194 194 185 180 191 176 164 164 167 167 158 148 139 133 143 153 157 179 173 142 143 145 165 222 253 215 184 232 327 332 336 350 10 37
195 192 193 194 196 196 193 192 194 178 155 162 168 175 172 165 150 129 113 106 115 146 148 133 146 161 155 178 240 248 245 234 211 263 312 314 326 315
197 193 191 194 194 196 197 195 190 170 162 174 183 185 174 158 138 120 103 97 86 86 112 128 148 154 158 180 200 198 234 254 209 199 265 266 269 292
201 198 194 192 186 188 191 196 182 174 176 184 180 167 150 148 154 150 151 152 146 172 157 149 158 159 175 202 198 218 210 223 214 212 234 262 261 244
173 169 175 173 181 182 183 183 178 180 192 178 174 168 167 169 172 165 159 164 177 175 174 179 181 178 203 195 216 225 220 224 215 201 211 262 260 246
187 183 190 189 190 189 189 190 191 192 190 183 180 178 178 179 177 171 172 181 193 194 180 167 156 147 267 254 219 221 217 219 209 196 193 231 268 255
206 195 196 194 192 191 191 192 194 191 184 185 187 185 180 179 178 183 188 194 202 201 189 169 167 168 184 248 242 203 196 197 188 202 211 215 243 262
206 201 201 196 191 191 192 193 190 183 184 189 189 187 185 184 188 192 194 199 201 199 198 190 192 194 197 203 225 218 205 195 187 205 220 225 250 269
205 201 197 193 191 190 191 190 189 189 187 188 193 192 192 193 199 200 199 207 203 201 210 213 211 197 179 156 234 244 219 212 204 192 188 197 240 256
203 199 195 191 188 189 188 186 187 190 190 192 194 194 195 198 203 203 202 203 206 208 214 206 172 171 180 205 225 226 225 219 226 231 228 206 188 208
213 201 194 191 188 185 185 186 188 193 194 194 195 196 197 201 203 203 204 204 202 203 201 191 179 184 199 209 221 228 230 222 214 222 241 243 244 248